KLCQ

Details ICAO KLCQ (LCQ)
Name Lake City Muni
Region United States
Timezone America/New_York (UTC-4.0)
Plans Departing 6
Arriving 7
Stats Elevation 201 ft / 61 m (AMSL)
Location 30.181711° -82.576542°
Runways 2
Magnetic Variation 5.885° W
Sunrise 2018-05-26 10:32:33 UTC / 2018-05-26 06:32:33 Local
Sunset 2018-05-27 00:25:05 UTC / 2018-05-26 20:25:05 Local
Advertisement - Login to hide

Runways

ID Width Length Bearing (true) Bearing (mag) Surface Threshold Offset Overrun Length
05 75 ft / 23 m 4,001 ft / 1,220 m 51.93° 57.82° Asphalt 0 ft / 0 m 0 ft / 0 m
10 150 ft / 46 m 7,990 ft / 2,435 m 97.08° 102.97° Asphalt 0 ft / 0 m 0 ft / 0 m
23 75 ft / 23 m 4,001 ft / 1,220 m 231.93° 237.82° Asphalt 0 ft / 0 m 0 ft / 0 m
28 150 ft / 46 m 7,990 ft / 2,435 m 277.09° 282.98° Asphalt 0 ft / 0 m 0 ft / 0 m

Map

Weather


0- 5 10 15 20 25 30 35+ Temperature / ° C

Clouds and Precipitation
Forecast for 2018-05-27 00:00 UTC. Updated 3 hours ago

Ground ~20,000 ft ~40,000 ft Winds

METAR

KLCQ 270155Z AUTO 09004KT 10SM CLR 23/20 A2992 RMK AO2

TAF

Not found

Frequencies

Recorded 120.67 MHz AWOS 3
Unicom 122.70 MHz UNICOM
Tower 119.20 MHz TWR
Unicom 119.20 MHz CTAF
Ground 121.90 MHz GND
Warning: Do not use this data for real-world aviation or navigation. No guarantee of current accuracy is given.